This is the latest recevied weather packets stored in our database for station/object KB1FFS. If no packets are shown the sender has not sent any weather packets the latest 10 day(s).
| Time | Temp. | Humidity | Pressure | Rain* | Wind** | Luminosity | Snow |
|---|---|---|---|---|---|---|---|
| 1787761207 | 33.89° C | 50% | 1016.3 hPa | 0 mm | - | 173 W/m² | - |
| 1787760906 | 33.89° C | 51% | 1016.2 hPa | 0 mm | - | 168 W/m² | - |
| 1787760604 | 33.33° C | 51% | 1016.1 hPa | 0 mm | - | 156 W/m² | - |
| 1787760298 | 33.33° C | 50% | 1016.1 hPa | 0 mm | - | 151 W/m² | - |
| 1787759995 | 33.33° C | 51% | 1016.2 hPa | 0 mm | - | 134 W/m² | - |
| 1787759690 | 33.33° C | 50% | 1016.3 hPa | 0 mm | - | 156 W/m² | - |
| 1787759386 | 33.33° C | 51% | 1016.1 hPa | 0 mm | - | 155 W/m² | - |
| 1787759081 | 33.33° C | 50% | 1016.2 hPa | 0 mm | - | 163 W/m² | - |
| 1787758780 | 33.33° C | 50% | 1016.2 hPa | 0 mm | - | 161 W/m² | - |
| 1787758476 | 33.33° C | 52% | 1016.2 hPa | 0 mm | - | 140 W/m² | - |
| 1787758175 | 33.33° C | 50% | 1016.3 hPa | 0 mm | - | 130 W/m² | - |
| 1787757871 | 33.33° C | 50% | 1016.2 hPa | 0 mm | - | 137 W/m² | - |
| 1787757566 | 33.89° C | 50% | 1016.2 hPa | 0 mm | - | 150 W/m² | - |
| 1787757266 | 33.89° C | 50% | 1016.2 hPa | 0 mm | - | 193 W/m² | - |
| 1787756964 | 33.33° C | 51% | 1016.4 hPa | 0 mm | - | 403 W/m² | - |
| 1787756660 | 32.78° C | 53% | 1016.2 hPa | 0 mm | - | 374 W/m² | - |
| 1787756359 | 32.22° C | 54% | 1016.2 hPa | 0 mm | - | 448 W/m² | - |
| 1787756054 | 32.22° C | 53% | 1016.3 hPa | 0 mm | - | 81 W/m² | - |
| 1787755749 | 32.22° C | 53% | 1016.3 hPa | 0 mm | - | 81 W/m² | - |
| 1787755444 | 32.22° C | 52% | 1016 hPa | 0 mm | - | 83 W/m² | - |
| 1787755144 | 32.78° C | 53% | 1016.1 hPa | 0 mm | - | 101 W/m² | - |
| 1787754843 | 32.78° C | 52% | 1016.3 hPa | 0 mm | - | 100 W/m² | - |
| 1787754542 | 32.78° C | 53% | 1016.3 hPa | 0 mm | - | 126 W/m² | - |
| 1787754240 | 32.78° C | 53% | 1016 hPa | 0 mm | - | 283 W/m² | - |
| 1787753936 | 32.22° C | 53% | 1016 hPa | 0 mm | - | 239 W/m² | - |
* Rain latest hour (hover to see other rain measurements)
** Current wind speed in m/s (hover to see current wind gust speed)